EW8677 Weather Reports


Display with metric or nautical units.
time (UTC)temp
F
wind
direction
speed
MPH
gust
MPH
rain 1hr
in
rain 24hr
in
rain mn
in
humidity
%
barometer
mb
20180920155957 67 28 1.0 5.0 0.00 0.00 0.00 56 825.9
20180920150001 58 323 3.0 13.0 0.00 0.00 0.00 73 826.2
20180920140006 53 360 3.0 8.0 0.00 0.00 0.00 79 825.8
20180920115950 55 360 3.0 8.0 0.00 0.00 0.00 79 824.6
20180920095956 57 360 4.0 9.0 0.00 0.00 0.00 73 824.0
20180920085941 58 360 4.0 12.0 0.00 0.00 0.00 72 823.9
20180920081321 58 360 2.0 5.0 0.00 0.00 0.00 73 824.3
20180920065959 58 30 3.0 10.0 0.00 0.00 0.00 75 824.6
20180920060013 56 10 0.0 0.0 0.00 0.00 0.00 85 824.8
20180920050031 60 13 1.0 3.0 0.00 0.00 0.00 74 824.7
20180920041311 60 10 4.0 13.0 0.00 0.00 0.00 75 824.5
20180920025948 60 348 3.0 10.0 0.00 0.00 0.00 77 824.7
20180920015946 59 360 3.0 6.0 0.00 0.00 0.00 81 825.3
20180920005955 62 268 1.0 4.0 0.00 0.00 0.00 71 825.9
20180920000008 65 360 2.0 8.0 0.00 0.00 0.00 60 825.0
20180919225935 66 319 6.0 14.0 0.00 0.00 0.00 64 825.1
20180919205925 66 199 0.0 0.0 0.00 0.00 0.00 72 827.2
20180919195935 65 170 3.0 5.0 0.00 0.00 0.00 74 827.6
20180919185939 65 154 2.0 8.0 0.00 0.00 0.00 65 826.8
20180919181645 65 47 2.0 5.0 0.00 0.00 0.00 61 825.4
20180919165921 64 325 2.0 9.0 0.00 0.00 0.00 52 825.4